This is the latest recevied weather packets stored in our database for station/object KK4WXG. If no packets are shown the sender has not sent any weather packets the latest 10 day(s).
| Time | Temp. | Humidity | Pressure | Rain* | Wind** | Luminosity | Snow |
|---|---|---|---|---|---|---|---|
| 1777558750 | 15.56° C | 58% | 1009.6 hPa | 0 mm | - | 894 W/m² | - |
| 1777558446 | 15.56° C | 58% | 1009.4 hPa | 0 mm | - | 315 W/m² | - |
| 1777558143 | 16.11° C | 57% | 1009.5 hPa | 0 mm | - | 743 W/m² | - |
| 1777557839 | 16.11° C | 60% | 1009.2 hPa | 0 mm | - | 698 W/m² | - |
| 1777557536 | 16.11° C | 60% | 1009.3 hPa | 0 mm | - | 643 W/m² | - |
| 1777557233 | 16.11° C | 59% | 1009.3 hPa | 0 mm | - | 626 W/m² | - |
| 1777556929 | 15.56° C | 60% | 1009.2 hPa | 0 mm | - | 606 W/m² | - |
| 1777556624 | 15.56° C | 62% | 1009.3 hPa | 0 mm | - | 598 W/m² | - |
| 1777556324 | 15.56° C | 61% | 1009.2 hPa | 0 mm | - | 473 W/m² | - |
| 1777556021 | 15.56° C | 64% | 1009.2 hPa | 0 mm | - | 559 W/m² | - |
| 1777555715 | 15.56° C | 63% | 1009.2 hPa | 0 mm | - | 543 W/m² | - |
| 1777555412 | 15° C | 65% | 1009 hPa | 0 mm | - | 530 W/m² | - |
| 1777555109 | 15° C | 64% | 1009 hPa | 0 mm | - | 512 W/m² | - |
| 1777554807 | 15° C | 64% | 1008.7 hPa | 0 mm | - | 498 W/m² | - |
| 1777554503 | 15° C | 65% | 1008.9 hPa | 0 mm | - | 476 W/m² | - |
| 1777554200 | 15° C | 64% | 1008.7 hPa | 0 mm | - | 457 W/m² | - |
| 1777553897 | 15° C | 68% | 1008.8 hPa | 0 mm | - | 440 W/m² | - |
| 1777553593 | 15° C | 64% | 1008.8 hPa | 0 mm | - | 421 W/m² | - |
| 1777553289 | 15° C | 65% | 1008.8 hPa | 0 mm | - | 400 W/m² | - |
| 1777552986 | 14.44° C | 65% | 1008.6 hPa | 0 mm | - | 382 W/m² | - |
| 1777552685 | 14.44° C | 66% | 1008.9 hPa | 0 mm | - | 364 W/m² | - |
| 1777552382 | 14.44° C | 65% | 1008.5 hPa | 0 mm | - | 342 W/m² | - |
| 1777552078 | 14.44° C | 67% | 1008.6 hPa | 0 mm | - | 321 W/m² | - |
| 1777551776 | 14.44° C | 66% | 1008.7 hPa | 0 mm | - | 301 W/m² | - |
| 1777551473 | 15° C | 67% | 1008.9 hPa | 0 mm | - | 282 W/m² | - |
* Rain latest hour (hover to see other rain measurements)
** Current wind speed in m/s (hover to see current wind gust speed)